SOYUZ-MS 11

Last updated on June 25, 2019, 12:02 a.m. UTC

1 43756U 18098A   19174.56182071 -.00000468  00000-0  00000-0 0  9992
2 43756  51.6412 329.6690 0008368  78.5989   4.6171 15.51185058 31408

Satellite is not in orbit.